TimeMDT,TemperatureF,Dew PointF,Humidity,Sea Level PressureIn,VisibilityMPH,Wind Direction,Wind SpeedMPH,Gust SpeedMPH,PrecipitationIn,Events,Conditions,WindDirDegrees,DateUTC
12:53 AM,30.9,28.0,89,30.07,9.0,NW,25.3,39.1,0.00,Snow,Light Snow,320,2013-10-05 06:53:00
1:45 AM,30.2,26.6,86,29.99,2.0,NW,31.1,42.6,0.00,Snow,Light Snow,320,2013-10-05 07:45:00
1:53 AM,30.0,27.0,88,30.08,2.5,NW,29.9,46.0,0.00,Snow,Light Snow,320,2013-10-05 07:53:00
2:14 AM,30.2,26.6,86,30.01,5.0,NW,28.8,43.7,0.00,,Mostly Cloudy,320,2013-10-05 08:14:00
2:53 AM,30.0,27.0,88,30.07,4.0,NW,32.2,43.7,0.00,Snow,Light Snow,320,2013-10-05 08:53:00
3:53 AM,30.0,27.0,88,30.06,5.0,NW,32.2,43.7,0.01,Snow,Light Snow,310,2013-10-05 09:53:00
4:53 AM,30.0,27.0,88,30.05,1.8,NW,32.2,46.0,0.00,Snow,Light Snow,310,2013-10-05 10:53:00
5:02 AM,30.2,26.6,86,29.99,1.5,NW,34.5,46.0,0.00,Snow,Light Snow,310,2013-10-05 11:02:00
5:22 AM,30.2,26.6,86,29.99,2.5,NW,33.4,48.3,0.00,Snow,Light Snow,310,2013-10-05 11:22:00
5:33 AM,30.2,26.6,86,29.99,1.8,NW,35.7,47.2,0.00,Snow,Light Snow,310,2013-10-05 11:33:00
5:42 AM,30.2,26.6,86,30.00,3.0,NW,33.4,43.7,0.00,Snow,Light Snow,310,2013-10-05 11:42:00
5:53 AM,30.0,26.1,85,30.07,4.0,NW,32.2,43.7,0.00,Snow,Light Snow,310,2013-10-05 11:53:00
6:53 AM,30.9,25.0,79,30.06,10.0,NW,31.1,42.6,0.00,,Overcast,310,2013-10-05 12:53:00
7:53 AM,32.0,26.1,79,30.08,9.0,NW,34.5,43.7,0.00,Snow,Light Snow,310,2013-10-05 13:53:00
8:53 AM,33.1,27.0,78,30.09,10.0,NW,28.8,44.9,0.00,,Overcast,310,2013-10-05 14:53:00
10:53 AM,36.0,27.0,70,30.12,10.0,NW,29.9,41.4,0.06,,Mostly Cloudy,310,2013-10-05 16:53:00
11:53 AM,36.0,27.0,70,30.12,10.0,NW,26.5,40.3,0.05,,Overcast,320,2013-10-05 17:53:00
12:53 PM,37.0,27.0,67,30.11,10.0,NW,25.3,34.5,0.03,,Mostly Cloudy,310,2013-10-05 18:53:00
1:53 PM,37.0,27.0,67,30.10,10.0,NW,28.8,40.3,0.01,,Overcast,310,2013-10-05 19:53:00
2:53 PM,39.9,28.0,63,30.09,10.0,NW,26.5,36.8,N/A,,Overcast,310,2013-10-05 20:53:00
3:53 PM,41.0,27.0,57,30.09,10.0,NW,24.2,33.4,N/A,,Mostly Cloudy,320,2013-10-05 21:53:00
4:53 PM,42.1,27.0,55,30.10,10.0,NW,19.6,33.4,N/A,,Clear,320,2013-10-05 22:53:00
5:53 PM,39.9,26.1,58,30.12,10.0,WNW,16.1,29.9,N/A,,Overcast,300,2013-10-05 23:53:00
6:53 PM,39.0,26.1,60,30.15,10.0,NW,19.6,-,N/A,,Overcast,310,2013-10-06 00:53:00
7:53 PM,36.0,27.0,70,30.15,10.0,NW,16.1,-,N/A,,Clear,310,2013-10-06 01:53:00
8:53 PM,37.0,27.0,67,30.17,10.0,NW,12.7,-,N/A,,Clear,310,2013-10-06 02:53:00
9:53 PM,36.0,27.0,70,30.18,10.0,NW,9.2,-,N/A,,Clear,310,2013-10-06 03:53:00
10:53 PM,32.0,27.0,82,30.18,10.0,WNW,15.0,-,N/A,,Clear,290,2013-10-06 04:53:00
11:53 PM,32.0,27.0,82,30.18,10.0,WNW,12.7,-,N/A,,Clear,300,2013-10-06 05:53:00